Location: Absher
(46.5583°N, 107.9840°W)
Time: 07:58:15
(UTC+00:00)

STRAND 1 - Pass Details

Date: 07 April 2023
Orbit: 767 x 779 km, 98.4° (Epoch: 03 June)

Event Time Altitude Azimuth Distance (km) Brightness Sun altitude
Rises 03:21:24 0° 3° (N) 3,250 ? -16.0°
Reaches altitude 10° 03:24:06 10° 350° (N) 2,318 ? -16.4°
Maximum altitude 03:28:04 24° 298° (WNW) 1,571 ? -17.0°
Drops below altitude 10° 03:32:02 10° 247° (WSW) 2,307 ? -17.5°
Sets 03:34:44 0° 233° (SW) 3,230 ? -17.9°
